Orbital Elements at Epoch 2459200.5 (2020-Dec-17.0) TDB
Reference: JPL 36 (heliocentric ecliptic J2000)
Element | Value | Uncertainty (1-sigma) | Units |
e | .1435080075008014 | 2.8923e-08 | |
a | 2.766932686772795 | 9.8293e-09 | au |
q | 2.369855690005192 | 7.9956e-08 | au |
i | 9.222393732030847 | 3.5307e-06 | deg |
node | 172.7332661288973 | 1.9723e-05 | deg |
peri | 260.7781889503005 | 2.394e-05 | deg |
M | 76.34570725436491 | 1.2123e-05 | deg |
tp | 2458843.984480757176 (2019-Dec-26.48448076) | 5.671e-05 | TDB |
period | 1681.110720473137 4.60 | 8.958e-06 2.453e-08 | d yr |
n | .2141441343605735 | 1.1411e-09 | deg/d |
Q | 3.164009683540397 | 1.124e-08 | au |
|
| | Orbit Determination Parameters
Additional Information
|